STARLINK-1722 (46361 NORAD) Tracking and Keplerian Element Data

This shows tracking and keplerian element data for the satellite.

Feedback or suggestion? Click here.




ElementValue
Catalog46361
NameSTARLINK-1722
Epoch Orbit1471
Epoch Day336.25001157
Epoch Year2020
RAAN354.739
Inclination52.9976
Eccentricity0.0002827
Argument of Perigee13.2536
Mean Anonmoly169.7668
Mean Motion15.62718056
Decay Rate0.0003958
L11 46361U 20062AN 20336.25001157 .00039580 00000-0 43653-3 0 9994
L22 46361 52.9976 354.7390 0002827 13.2536 169.7668 15.62718056 14717

Live tracking and technical data element details for STARLINK-1722 (NORAD 46361). STARLINK-1722 can be tracked NOW for your location showing map with azimuth and elevation plus other details from your city location.

Track the satellite on the map from your city or location and see movement details for azimuth, elevation, latitude, longitude, range, height, and movement on the map or in text.







IsCatalogInMostPopularTable: catalog: 46361, numindb: 24
Update: records affected: 1



GetName: 46361 STARLINK-1722

Hit Count: updated at: Tue, 01 Dec 2020 21:08:31 GMT